Flag for U.S.A. Weather past 2 weeks in Lakewood, New Jersey, U.S.A.

Now
21 °F

Sunny.


Feels Like: 4 °F
Forecast: 14 / 25 °F
Wind: 25 mph from Northwest

Location: Belmar-Farmdale

Current Time: Jan 31, 2015 at 1:10:28 PM

Latest Report: Jan 31, 2015 at 12:35 PM


Visibility: 10 mi

Pressure: 30.11 "Hg

Humidity: 38%

Dew point: 0 °F

Location of LakewoodLocation

Historic Weather in Lakewood — Graph

°F

Lakewood temperature yesterday

Maximum temperature yesterday: 37 °F (at 12:35 PM)
Minimum temperature yesterday: 18 °F (at 11:15 PM)
Average temperature yesterday: 32 °F

Past Weeks' High & Low Weather Summary

 TemperatureHumidityPressure
High46 °F (Jan 18, 9:15 AM)87% (Jan 18, 8:55 AM)30.40 "Hg (Jan 18, 8:55 AM)
Low10 °F (Jan 29, 5:55 AM)26% (Jan 17, 2:35 PM)29.29 "Hg (Jan 24, 1:35 PM)
Average30 °F60%29.99 "Hg
* Reported Jan 16 11:15 AM — Jan 31 11:55 AM, Lakewood, Weather by CustomWeather, © 2014

Note: Actual official high and low records may vary slightly from our data, if they occured in-between our weather recording intervals... More about our weather records

Advertising

Lakewood weather history for previous 24 hours

 ConditionsComfort  
Time TempWeatherWind HumidityBarometerVisibility
11:55 AM
Jan 31
21 °FSunny.25 mph38%30.13 "Hg10 mi
11:35 AM19 °FSunny.20 mph42%30.14 "Hg10 mi
11:15 AM19 °FSunny.22 mph42%30.15 "Hg10 mi
10:35 AM19 °FSunny.21 mph38%30.14 "Hg10 mi
10:15 AM18 °FSunny.28 mph41%30.14 "Hg10 mi
9:55 AM18 °FSunny.15 mph41%30.14 "Hg10 mi
9:35 AM16 °FSunny.23 mph45%30.13 "Hg10 mi
9:15 AM16 °FSunny.21 mph45%30.12 "Hg10 mi
8:55 AM16 °FSunny.22 mph41%30.12 "Hg10 mi
8:35 AM14 °FSunny.22 mph48%30.12 "Hg10 mi
8:15 AM14 °FSunny.17 mph44%30.12 "Hg10 mi
7:55 AM12 °FSunny.13 mph48%30.12 "Hg10 mi
7:35 AM12 °FSunny.13 mph48%30.12 "Hg10 mi
7:15 AM12 °FSunny.16 mph48%30.11 "Hg10 mi
6:55 AM12 °FClear.14 mph48%30.11 "Hg10 mi
6:35 AM12 °FClear.12 mph48%30.10 "Hg10 mi
6:15 AM12 °FClear.15 mph48%30.10 "Hg10 mi
5:55 AM12 °FClear.13 mph48%30.09 "Hg10 mi
5:35 AM12 °FClear.15 mph48%30.09 "Hg10 mi
5:15 AM14 °FClear.16 mph44%30.09 "Hg10 mi
4:55 AM14 °FClear.18 mph44%30.09 "Hg10 mi
4:35 AM14 °FClear.16 mph48%30.08 "Hg10 mi
4:15 AM14 °FClear.16 mph48%30.08 "Hg10 mi
3:55 AM16 °FClear.20 mph45%30.08 "Hg10 mi
3:35 AM16 °FClear.18 mph45%30.07 "Hg10 mi
3:15 AM16 °FClear.21 mph45%30.07 "Hg10 mi
2:55 AM16 °FClear.17 mph45%30.07 "Hg10 mi
2:35 AM16 °FClear.26 mph45%30.06 "Hg10 mi
2:15 AM16 °FClear.24 mph48%30.05 "Hg10 mi
1:55 AM16 °FClear.22 mph48%30.05 "Hg10 mi
1:35 AM18 °FClear.24 mph45%30.04 "Hg10 mi
1:15 AM18 °FClear.15 mph45%30.04 "Hg10 mi
12:55 AM18 °FClear.25 mph45%30.04 "Hg10 mi
12:35 AM18 °FClear.21 mph45%30.03 "Hg10 mi
12:15 AM18 °FClear.18 mph45%30.03 "Hg10 mi
11:55 PM
Jan 30
18 °FClear.23 mph49%30.03 "Hg10 mi
11:35 PM18 °FClear.23 mph49%30.03 "Hg10 mi
11:15 PM18 °FClear.21 mph49%30.03 "Hg10 mi
10:15 PM19 °FClear.22 mph45%30.03 "Hg10 mi
9:55 PM19 °FClear.18 mph45%30.03 "Hg10 mi
9:35 PM19 °FClear.23 mph45%30.02 "Hg10 mi
9:15 PM21 °FClear.28 mph45%30.02 "Hg10 mi
8:55 PM23 °FClear.24 mph42%30.01 "Hg10 mi
8:35 PM25 °FClear.23 mph39%30.00 "Hg10 mi
8:15 PM25 °FClear.28 mph46%29.99 "Hg10 mi
7:55 PM27 °FPassing clouds.26 mph46%29.98 "Hg10 mi
7:35 PM28 °FClear.18 mph47%29.97 "Hg10 mi
7:15 PM28 °FClear.18 mph47%29.96 "Hg10 mi
6:55 PM28 °FClear.23 mph47%29.96 "Hg10 mi
6:35 PM30 °FClear.24 mph47%29.95 "Hg10 mi
6:15 PM32 °FClear.18 mph44%29.94 "Hg10 mi
5:55 PM34 °FPassing clouds.23 mph41%29.92 "Hg10 mi
5:35 PM34 °FPassing clouds.23 mph48%29.91 "Hg10 mi
5:15 PM34 °FPassing clouds.22 mph48%29.90 "Hg10 mi
4:15 PM36 °FPartly sunny.17 mph48%29.87 "Hg10 mi
3:55 PM36 °FMore clouds than sun.20 mph52%29.86 "Hg10 mi
3:35 PM36 °FMore clouds than sun.18 mph52%29.85 "Hg10 mi
3:15 PM37 °FOvercast.16 mph48%29.84 "Hg10 mi
2:55 PM37 °FMostly cloudy.18 mph52%29.84 "Hg10 mi
2:35 PM37 °FMostly cloudy.20 mph48%29.83 "Hg10 mi
2:15 PM37 °FMostly cloudy.18 mph52%29.83 "Hg10 mi
1:55 PM37 °FMostly cloudy.21 mph52%29.83 "Hg10 mi
1:35 PM36 °FCloudy.15 mph56%29.83 "Hg10 mi
1:15 PM36 °FMostly cloudy.18 mph56%29.84 "Hg10 mi
Weather by CustomWeather, © 2014

See weather overviewHow to use our weather pages